Volver al catálogo

CZ-5 R/B

ActivoGTO
NORAD 67227·ROCKET BODY·🇨🇳 China

Lanzado Dec 20, 2025 desde Wenchang Space Launch Site

Loading…

TLE

EnvejeciendoSource: Space-Track

Época: Sep 14, 2026, 07:57 UTC

1 67227U 25306B   26257.33151051  .00000383  00000-0  92893-3 0  9999
2 67227  15.8025 209.4734 7534614 345.4119   1.1863  1.93818218  5200

Sigue CZ-5 R/B en tiempo real con AllMySat

Download on the App Store